Powrót do katalogu

DELTA 1 DEB

AktywnySSO
NORAD 19033·DEBRIS·🇺🇸 United States

Wystrzelony Nov 6, 1973 z Vandenberg Space Force Base

Loading…

Następne Przeloty (najbliższe 24 godziny)

TLE

ŚwieżeSource: Space-Track

Epoka: Sep 14, 2026, 12:13 UTC

1 19033U 73086HC  26257.50954384  .00000295  00000-0  21315-2 0  9990
2 19033 101.9474 266.7235 0038426 322.8642 190.7267 12.53713816894971

Śledź DELTA 1 DEB w czasie rzeczywistym z AllMySat

Download on the App Store